Location: Bennemühlen
(52.5740°N, 9.7135°E)
Time: 17:45:46
(UTC+00:00)

Vanguard 2 - All Passes

Search period start: 18 February 2026 00:00
Search period end: 28 February 2026 00:00
Orbit: 553 x 2897 km, 32.9° (Epoch: 17 February)

Date Brightness Start Highest point End Pass type
(mag) Time Alt. Az. Time Alt. Az. Time Alt. Az.
24 Feb - 03:33:41 10° SSW 03:35:41 11° S 03:37:29 10° SSE visible
25 Feb - 03:44:09 10° SSW 03:47:19 13° S 03:50:01 10° SSE visible
26 Feb - 01:48:10 10° S 01:51:40 12° SSE 01:54:42 10° SE visible
26 Feb - 03:55:08 10° SW 03:58:56 14° S 04:02:05 10° SSE visible
27 Feb - 01:58:07 10° SSW 02:03:19 15° S 02:07:31 10° SE visible
27 Feb - 04:06:24 10° SW 04:10:31 15° S 04:13:52 10° SSE visible
